Retour au catalogue

COSMOS 1579 COOLANT

LostLEO
NORAD 27739·DEBRIS·🇷🇺 Russia

Lancé Jun 29, 1984 depuis Baikonur Cosmodrome

Loading…

Prochains Passages (prochaines 24 heures)

TLE

PériméSource: Space-Track

Époque: Nov 23, 2023, 05:01 UTC

1 27739U 84069Z   23327.20903475  .00000249  00000-0  26615-3 0  9990
2 27739  65.0492 178.2447 0054653 312.2293  47.4140 13.91167110 92588

Suivez COSMOS 1579 COOLANT en temps réel avec AllMySat

Download on the App Store